FLOCK 3P-67

Last updated on Wed Feb 14 2018 16:20:30 GMT+0000 (Coordinated Universal Time)

1 42002U 17008BG 18044.88048406 .00002254 00000-0 95692-4 0 9997 2 42002 97.4663 110.4915 0009796 86.5731 273.6627 15.24094932 55335
UTC large
Height (km)
Speed (km/s)
/
Latitude / Longitude
Inclination (degrees)
Orbital Period (minutes)
Azimuth
Elevation
Range (km)
Doppler Factor

Next 0 passes for location: London (51.5072 / 0.1276)

Sorry there are no passes over London.